M5DJC Weather Reports


time (UTC)temp
C
wind
direction
speed
KPH
gust
KPH
rain 1hr
cm
rain 24hr
cm
rain mn
cm
humidity
%
barometer
mb
20260508070032 10 127 1.6 8.0 0.00 0.00 0.00 88 1017.6
20260508064538 10 109 0.0 11.3 0.00 0.00 0.00 90 1017.5
20260508063034 8 133 3.2 8.0 0.00 0.00 0.00 91 1017.4
20260508061536 8 0 0.0 4.8 0.00 0.00 0.00 92 1017.3
20260508060034 8 0 0.0 6.4 0.00 0.00 0.00 92 1017.1
20260508054535 8 123 1.6 8.0 0.00 0.00 0.00 92 1017.1
20260508053035 8 122 4.8 11.3 0.00 0.00 0.00 92 1016.9
20260508051533 8 74 0.0 12.9 0.00 0.00 0.00 92 1017.0
20260508050032 8 104 3.2 6.4 0.00 0.00 0.00 92 1016.6
20260508044534 8 112 0.0 6.4 0.00 0.00 0.00 91 1016.7
20260508043032 8 114 3.2 11.3 0.00 0.00 0.00 91 1016.6
20260508041530 8 131 4.8 14.5 0.00 0.00 0.00 91 1016.6
20260508040037 8 114 1.6 12.9 0.00 0.00 0.00 91 1016.6
20260508034534 8 116 6.4 12.9 0.00 0.00 0.00 91 1016.5
20260508033036 8 132 4.8 11.3 0.00 0.00 0.00 90 1016.5
20260508031533 8 120 4.8 12.9 0.00 0.00 0.00 90 1016.6
20260508030033 8 119 4.8 12.9 0.00 0.00 0.00 90 1016.4
20260508024542 8 121 4.8 11.3 0.00 0.00 0.00 89 1016.5
20260508023033 8 121 4.8 16.1 0.00 0.00 0.00 89 1016.4
20260508021535 8 170 4.8 12.9 0.00 0.00 0.00 89 1016.2
20260508020034 8 121 4.8 11.3 0.00 0.00 0.00 88 1016.2
20260508014545 8 133 4.8 14.5 0.00 0.00 0.00 88 1016.1
20260508013042 8 126 4.8 12.9 0.00 0.00 0.00 88 1016.2
20260508011535 8 123 3.2 12.9 0.00 0.00 0.00 87 1016.3
20260508010033 8 147 4.8 14.5 0.00 0.00 0.00 87 1016.3
20260508004533 8 125 6.4 14.5 0.00 0.00 0.00 86 1016.4
20260508003053 8 125 6.4 11.3 0.00 0.00 0.00 85 1016.4
20260508001533 8 116 6.4 11.3 0.00 0.00 0.00 85 1016.6
20260508000037 8 143 4.8 11.3 0.00 0.00 0.00 84 1016.7
20260507234530 8 140 4.8 17.7 0.00 0.00 0.00 84 1016.8
20260507233036 9 143 6.4 12.9 0.00 0.00 0.00 83 1016.7
20260507231535 9 155 6.4 14.5 0.00 0.00 0.00 82 1016.7
20260507230038 9 125 6.4 20.9 0.00 0.00 0.00 82 1016.7
20260507224541 9 156 4.8 11.3 0.00 0.00 0.00 81 1017.0
20260507223033 9 115 8.0 16.1 0.00 0.00 0.00 81 1017.0
20260507221532 9 122 4.8 12.9 0.00 0.00 0.00 81 1017.0
20260507220032 10 135 4.8 16.1 0.00 0.00 0.00 80 1016.9
20260507214534 10 121 4.8 11.3 0.00 0.00 0.00 79 1016.9
20260507213032 10 129 8.0 17.7 0.00 0.00 0.00 78 1016.8
20260507211541 10 128 8.0 16.1 0.00 0.00 0.00 78 1016.9
20260507210035 10 117 8.0 22.5 0.00 0.00 0.00 76 1016.7
20260507204531 10 121 8.0 19.3 0.00 0.00 0.00 75 1016.6
20260507203032 11 127 8.0 14.5 0.00 0.00 0.00 73 1016.5
20260507201533 11 130 4.8 9.7 0.00 0.00 0.00 72 1016.4
20260507200031 11 133 6.4 11.3 0.00 0.00 0.00 71 1016.3
20260507194537 11 136 4.8 11.3 0.00 0.00 0.00 70 1016.2
20260507193035 11 141 4.8 11.3 0.00 0.00 0.00 70 1016.1
20260507191530 11 129 6.4 16.1 0.00 0.00 0.00 68 1016.0
20260507190035 12 131 6.4 12.9 0.00 0.00 0.00 67 1016.0
20260507184534 12 115 4.8 16.1 0.00 0.00 0.00 67 1016.1
20260507183032 12 116 6.4 17.7 0.00 0.00 0.00 65 1015.8
20260507181531 13 138 11.3 22.5 0.00 0.00 0.00 63 1015.8
20260507180040 13 79 8.0 19.3 0.00 0.00 0.00 63 1015.6
20260507174535 13 133 6.4 16.1 0.00 0.00 0.00 62 1015.7
20260507173034 13 121 9.7 20.9 0.00 0.00 0.00 59 1015.6
20260507171532 14 121 8.0 17.7 0.00 0.00 0.00 60 1015.7
20260507170034 14 123 9.7 19.3 0.00 0.00 0.00 59 1015.8
20260507164531 15 114 8.0 19.3 0.00 0.00 0.00 58 1015.8
20260507163032 14 148 4.8 12.9 0.00 0.00 0.00 59 1015.9
20260507161534 14 136 8.0 16.1 0.00 0.00 0.00 58 1015.7
20260507160037 15 132 4.8 9.7 0.00 0.00 0.00 56 1015.8
20260507154532 15 133 3.2 8.0 0.00 0.00 0.00 57 1015.9
20260507153035 15 114 1.6 12.9 0.00 0.00 0.00 55 1016.1
20260507151533 14 137 4.8 12.9 0.00 0.00 0.00 58 1016.2
20260507150030 14 119 3.2 14.5 0.00 0.00 0.00 56 1016.2
20260507144536 13 127 3.2 11.3 0.00 0.00 0.00 59 1016.2
20260507143035 13 85 4.8 14.5 0.00 0.00 0.00 61 1016.2
20260507141536 13 129 3.2 9.7 0.00 0.00 0.00 59 1016.2
20260507140033 13 0 1.6 11.3 0.00 0.00 0.00 61 1016.4
20260507134532 13 131 4.8 11.3 0.00 0.00 0.00 60 1016.6
20260507133033 13 132 3.2 11.3 0.00 0.00 0.00 58 1016.5
20260507131539 14 133 3.2 11.3 0.00 0.00 0.00 60 1016.5
20260507130033 14 123 4.8 12.9 0.00 0.00 0.00 59 1016.5
20260507124535 15 137 6.4 16.1 0.00 0.00 0.00 56 1016.5
20260507123033 15 113 6.4 14.5 0.00 0.00 0.00 59 1016.4
20260507121531 16 0 3.2 20.9 0.00 0.00 0.00 59 1016.4
20260507120032 15 149 3.2 17.7 0.00 0.00 0.00 62 1016.4
20260507114532 13 129 6.4 16.1 0.00 0.00 0.00 62 1016.8
20260507113036 15 118 8.0 16.1 0.00 0.00 0.00 59 1016.9
20260507111538 14 95 8.0 16.1 0.00 0.00 0.00 64 1016.9
20260507110033 14 151 8.0 16.1 0.00 0.00 0.00 65 1017.0
20260507104535 14 139 3.2 16.1 0.00 0.00 0.00 67 1017.0
20260507103030 13 114 4.8 17.7 0.00 0.00 0.00 66 1017.0
20260507101552 12 206 3.2 12.9 0.00 0.00 0.00 70 1017.1
20260507100035 12 106 3.2 14.5 0.00 0.00 0.00 67 1017.2
20260507094532 11 239 3.2 9.7 0.00 0.00 0.00 76 1017.3
20260507093034 11 133 0.0 6.4 0.00 0.00 0.00 74 1017.2
20260507091550 11 0 0.0 16.1 0.00 0.00 0.00 75 1017.2
20260507090033 11 131 4.8 16.1 0.00 0.00 0.00 76 1017.1
20260507084530 11 7 1.6 9.7 0.00 0.00 0.00 74 1017.1
20260507083032 11 167 4.8 16.1 0.00 0.00 0.00 74 1017.0
20260507081548 11 95 0.0 16.1 0.00 0.00 0.00 77 1017.0
20260507080033 11 124 3.2 14.5 0.00 0.00 0.00 76 1016.8
20260507074537 10 176 3.2 12.9 0.00 0.00 0.00 78 1017.0
20260507073036 10 120 4.8 14.5 0.00 0.00 0.00 81 1016.9
20260507071530 9 118 6.4 16.1 0.00 0.00 0.00 83 1016.8